Location: Austin
(30.3000°N, 97.7500°W)
Time: 01:17:27
(UTC-05:00)

Cosmos 2278 - Pass Details

Date: 15 April 2025
Orbit: 839 x 850 km, 71.1° (Epoch: 28 April)

Event Time Altitude Azimuth Distance (km) Brightness Sun altitude
Rises 22:16:37 0° 210° (SSW) 3,400 6.8 -28.2°
Reaches altitude 10° 22:19:07 10° 215° (SW) 2,467 6.1 -28.7°
Maximum altitude 22:24:38 54° 292° (WNW) 1,028 4.3 -29.7°
Drops below altitude 10° 22:30:12 10° 9° (N) 2,475 6.4 -30.7°
Sets 22:32:43 0° 14° (NNE) 3,411 7.1 -31.1°
